Time,TemperatureF,DewpointF,PressureIn,WindDirection,WindDirectionDegrees,WindSpeedMPH,WindSpeedGustMPH,Humidity,HourlyPrecipIn,Conditions,Clouds,dailyrainin,SoftwareType,DateUTC
2013-05-20 07:40:00,50.6,49.5,30.00,NE,38,0.0,2.0,96,0.00,,,0.32,Wunderground v.1.15,2013-05-20 11:40:00,
2013-05-20 07:45:00,50.7,49.6,30.00,NE,39,0.0,2.0,96,0.00,,,0.32,Wunderground v.1.15,2013-05-20 11:45:00,
2013-05-20 07:50:00,50.8,50.0,30.01,NE,39,0.0,0.0,97,0.00,,,0.32,Wunderground v.1.15,2013-05-20 11:50:00,
2013-05-20 07:55:00,50.8,49.7,30.01,NE,38,0.0,0.0,96,0.00,,,0.32,Wunderground v.1.15,2013-05-20 11:55:00,
2013-05-20 08:00:00,50.8,49.7,30.00,NE,38,0.0,0.0,96,0.00,,,0.32,Wunderground v.1.15,2013-05-20 12:00:00,
2013-05-20 08:05:00,50.7,49.6,30.00,NE,39,0.0,0.0,96,0.00,,,0.33,Wunderground v.1.15,2013-05-20 12:05:00,
2013-05-20 08:10:00,50.6,49.5,30.00,NE,39,0.0,0.0,96,0.17,,,0.35,Wunderground v.1.15,2013-05-20 12:10:00,
2013-05-20 08:15:00,50.7,49.6,30.00,NE,39,0.0,0.0,96,0.10,,,0.35,Wunderground v.1.15,2013-05-20 12:15:00,
2013-05-20 08:20:00,50.8,49.7,30.00,NE,39,0.0,0.0,96,0.08,,,0.36,Wunderground v.1.15,2013-05-20 12:20:00,
2013-05-20 08:25:00,50.9,50.1,30.00,NE,39,0.0,0.0,97,0.07,,,0.36,Wunderground v.1.15,2013-05-20 12:25:00,
2013-05-20 08:35:00,50.7,49.6,30.00,NE,40,0.0,0.0,96,0.05,,,0.37,Wunderground v.1.15,2013-05-20 12:35:00,
2013-05-20 08:40:00,50.8,49.7,29.99,NE,39,0.0,0.0,96,0.05,,,0.37,Wunderground v.1.15,2013-05-20 12:40:00,
2013-05-20 08:50:00,51.0,50.2,29.99,NE,39,0.0,0.0,97,0.00,,,0.37,Wunderground v.1.15,2013-05-20 12:50:00,
2013-05-20 08:55:00,51.1,50.0,29.99,NE,39,0.0,0.0,96,0.00,,,0.38,Wunderground v.1.15,2013-05-20 12:55:00,
2013-05-20 09:00:00,51.1,50.0,29.99,NE,40,0.0,0.0,96,0.06,,,0.38,Wunderground v.1.15,2013-05-20 13:00:00,
2013-05-20 09:10:00,51.2,50.1,30.00,NE,40,0.0,0.0,96,0.10,,,0.40,Wunderground v.1.15,2013-05-20 13:10:00,
2013-05-20 09:15:00,51.1,50.0,30.00,NE,40,0.0,0.0,96,0.06,,,0.40,Wunderground v.1.15,2013-05-20 13:15:00,
2013-05-20 09:25:00,51.0,49.9,29.99,SE,130,0.0,0.0,96,0.00,,,0.40,Wunderground v.1.15,2013-05-20 13:25:00,
2013-05-20 09:30:00,51.0,49.9,29.98,SE,129,0.0,0.0,96,0.29,,,0.43,Wunderground v.1.15,2013-05-20 13:30:00,
2013-05-20 09:40:00,51.1,50.0,29.98,SE,129,0.0,0.0,96,0.20,,,0.45,Wunderground v.1.15,2013-05-20 13:40:00,
2013-05-20 09:45:00,51.3,50.5,29.98,SE,130,0.0,0.0,97,0.16,,,0.46,Wunderground v.1.15,2013-05-20 13:45:00,
2013-05-20 09:55:00,51.6,50.8,29.98,SE,129,0.0,0.0,97,0.05,,,0.46,Wunderground v.1.15,2013-05-20 13:55:00,
2013-05-20 10:00:00,51.6,50.5,29.98,SE,129,0.0,0.0,96,0.00,,,0.46,Wunderground v.1.15,2013-05-20 14:00:00,
2013-05-20 10:10:00,51.8,50.7,29.98,SE,129,0.0,0.0,96,0.00,,,0.47,Wunderground v.1.15,2013-05-20 14:10:00,
2013-05-20 10:15:00,52.1,51.0,29.98,SE,130,0.0,0.0,96,0.00,,,0.47,Wunderground v.1.15,2013-05-20 14:15:00,
2013-05-20 10:20:00,52.2,51.1,29.98,SE,130,0.0,0.0,96,0.00,,,0.47,Wunderground v.1.15,2013-05-20 14:20:00,
2013-05-20 10:30:00,52.3,51.2,29.98,SE,129,0.0,0.0,96,0.00,,,0.47,Wunderground v.1.15,2013-05-20 14:30:00,
2013-05-20 10:35:00,52.4,51.3,29.98,SE,129,0.0,0.0,96,0.00,,,0.47,Wunderground v.1.15,2013-05-20 14:35:00,
2013-05-20 10:45:00,52.7,51.6,29.98,SE,130,0.0,0.0,96,0.00,,,0.47,Wunderground v.1.15,2013-05-20 14:45:00,
2013-05-20 10:50:00,52.8,51.7,29.98,SE,129,0.0,0.0,96,0.00,,,0.47,Wunderground v.1.15,2013-05-20 14:50:00,
2013-05-20 11:00:00,53.2,52.1,29.97,SE,129,0.0,0.0,96,0.00,,,0.47,Wunderground v.1.15,2013-05-20 15:00:00,
2013-05-20 11:05:00,53.3,51.9,29.97,SE,130,0.0,0.0,95,0.00,,,0.47,Wunderground v.1.15,2013-05-20 15:05:00,
2013-05-20 11:15:00,53.9,52.5,29.97,SE,129,0.0,0.0,95,0.00,,,0.47,Wunderground v.1.15,2013-05-20 15:15:00,
2013-05-20 11:20:00,54.1,52.7,29.96,SE,130,0.0,0.0,95,0.00,,,0.47,Wunderground v.1.15,2013-05-20 15:20:00,
2013-05-20 11:30:00,54.5,53.1,29.96,SE,131,0.0,0.0,95,0.00,,,0.47,Wunderground v.1.15,2013-05-20 15:30:00,
2013-05-20 11:35:00,54.5,53.1,29.96,SE,131,0.0,0.0,95,0.00,,,0.47,Wunderground v.1.15,2013-05-20 15:35:00,
2013-05-20 11:45:00,54.7,53.3,29.96,SE,131,0.0,0.0,95,0.00,,,0.47,Wunderground v.1.15,2013-05-20 15:45:00,
2013-05-20 11:50:00,54.9,53.5,29.96,SE,131,0.0,0.0,95,0.00,,,0.47,Wunderground v.1.15,2013-05-20 15:50:00,
2013-05-20 12:00:00,55.0,53.6,29.95,SE,131,0.0,0.0,95,0.00,,,0.47,Wunderground v.1.15,2013-05-20 16:00:00,
2013-05-20 12:05:00,55.3,54.2,29.95,SE,131,0.0,0.0,96,0.00,,,0.47,Wunderground v.1.15,2013-05-20 16:05:00,
2013-05-20 12:10:00,55.5,54.4,29.94,SSE,148,0.0,0.0,96,0.00,,,0.47,Wunderground v.1.15,2013-05-20 16:10:00,
2013-05-20 12:20:00,56.5,55.4,29.95,SE,139,0.0,0.0,96,0.00,,,0.47,Wunderground v.1.15,2013-05-20 16:20:00,
2013-05-20 12:25:00,56.9,55.8,29.94,SE,140,0.0,0.0,96,0.00,,,0.47,Wunderground v.1.15,2013-05-20 16:25:00,
2013-05-20 12:35:00,57.4,56.3,29.94,SE,139,0.0,0.0,96,0.00,,,0.47,Wunderground v.1.15,2013-05-20 16:35:00,
2013-05-20 12:40:00,57.8,56.7,29.94,East,82,0.0,0.0,96,0.00,,,0.47,Wunderground v.1.15,2013-05-20 16:40:00,
2013-05-20 12:45:00,58.0,56.6,29.94,NE,53,0.0,0.0,95,0.00,,,0.47,Wunderground v.1.15,2013-05-20 16:45:00,
2013-05-20 12:55:00,58.5,56.5,29.94,NE,54,0.0,0.0,93,0.00,,,0.47,Wunderground v.1.15,2013-05-20 16:55:00,
2013-05-20 13:00:00,58.9,57.2,29.94,NE,53,0.0,0.0,94,0.00,,,0.47,Wunderground v.1.15,2013-05-20 17:00:00,
2013-05-20 13:10:00,59.2,57.5,29.93,NE,53,0.0,0.0,94,0.00,,,0.47,Wunderground v.1.15,2013-05-20 17:10:00,
2013-05-20 13:15:00,59.5,57.8,29.93,NE,53,0.0,0.0,94,0.00,,,0.47,Wunderground v.1.15,2013-05-20 17:15:00,
2013-05-20 13:25:00,60.0,58.3,29.94,NNE,28,0.0,0.0,94,0.00,,,0.47,Wunderground v.1.15,2013-05-20 17:25:00,
2013-05-20 13:30:00,60.5,58.8,29.93,NE,41,0.0,2.0,94,0.00,,,0.47,Wunderground v.1.15,2013-05-20 17:30:00,
2013-05-20 13:35:00,61.1,58.8,29.94,NE,40,1.0,2.0,92,0.00,,,0.47,Wunderground v.1.15,2013-05-20 17:35:00,
2013-05-20 13:45:00,62.4,60.0,29.93,SSW,203,1.0,1.0,92,0.00,,,0.47,Wunderground v.1.15,2013-05-20 17:45:00,
2013-05-20 13:50:00,63.7,60.4,29.93,SSE,155,1.0,1.0,89,0.00,,,0.47,Wunderground v.1.15,2013-05-20 17:50:00,
2013-05-20 14:00:00,65.1,60.8,29.93,SSW,209,1.0,1.0,86,0.00,,,0.47,Wunderground v.1.15,2013-05-20 18:00:00,
2013-05-20 14:05:00,65.3,60.7,29.93,SW,226,1.0,2.0,85,0.00,,,0.47,Wunderground v.1.15,2013-05-20 18:05:00,
2013-05-20 14:15:00,66.6,61.3,29.93,SE,141,1.0,2.0,83,0.00,,,0.47,Wunderground v.1.15,2013-05-20 18:15:00,
2013-05-20 14:20:00,67.3,62.0,29.92,East,97,2.0,3.0,83,0.00,,,0.47,Wunderground v.1.15,2013-05-20 18:20:00,
2013-05-20 14:30:00,68.3,61.2,29.92,NE,55,3.0,3.0,78,0.00,,,0.47,Wunderground v.1.15,2013-05-20 18:30:00,
2013-05-20 14:35:00,68.3,59.7,29.92,SE,138,3.0,3.0,74,0.00,,,0.47,Wunderground v.1.15,2013-05-20 18:35:00,
2013-05-20 14:40:00,68.7,61.9,29.91,South,181,3.0,3.0,79,0.00,,,0.47,Wunderground v.1.15,2013-05-20 18:40:00,
2013-05-20 14:50:00,69.5,60.1,29.91,SSE,154,3.0,6.0,72,0.00,,,0.48,Wunderground v.1.15,2013-05-20 18:50:00,
2013-05-20 14:55:00,69.9,58.9,29.91,West,266,4.0,6.0,68,0.00,,,0.48,Wunderground v.1.15,2013-05-20 18:55:00,
2013-05-20 15:05:00,70.0,57.7,29.91,SE,138,4.0,4.0,65,0.00,,,0.48,Wunderground v.1.15,2013-05-20 19:05:00,
2013-05-20 15:10:00,70.4,58.1,29.91,SSE,166,3.0,3.0,65,0.00,,,0.48,Wunderground v.1.15,2013-05-20 19:10:00,
2013-05-20 15:20:00,70.7,57.5,29.91,SSE,155,3.0,5.0,63,0.00,,,0.48,Wunderground v.1.15,2013-05-20 19:20:00,
2013-05-20 15:25:00,70.7,57.0,29.91,NNE,18,3.0,5.0,62,0.00,,,0.48,Wunderground v.1.15,2013-05-20 19:25:00,
2013-05-20 15:30:00,70.9,57.7,29.91,SSE,168,2.0,2.0,63,0.00,,,0.48,Wunderground v.1.15,2013-05-20 19:30:00,
2013-05-20 15:40:00,71.3,57.2,29.90,SW,224,3.0,3.0,61,0.00,,,0.48,Wunderground v.1.15,2013-05-20 19:40:00,
2013-05-20 15:45:00,71.6,57.4,29.90,North,354,2.0,3.0,61,0.00,,,0.48,Wunderground v.1.15,2013-05-20 19:45:00,
2013-05-20 15:55:00,72.0,55.9,29.89,SSE,158,2.0,4.0,57,0.00,,,0.48,Wunderground v.1.15,2013-05-20 19:55:00,
2013-05-20 16:00:00,71.8,56.2,29.89,South,187,4.0,5.0,58,0.00,,,0.48,Wunderground v.1.15,2013-05-20 20:00:00,
2013-05-20 16:10:00,70.9,57.7,29.89,SSW,208,3.0,3.0,63,0.00,,,0.48,Wunderground v.1.15,2013-05-20 20:10:00,
2013-05-20 16:15:00,70.3,57.1,29.89,SSE,167,2.0,3.0,63,0.00,,,0.48,Wunderground v.1.15,2013-05-20 20:15:00,
2013-05-20 16:20:00,69.9,55.4,29.89,SW,215,2.0,2.0,60,0.00,,,0.48,Wunderground v.1.15,2013-05-20 20:20:00,
2013-05-20 16:30:00,70.6,54.1,29.90,NE,53,2.0,2.0,56,0.00,,,0.48,Wunderground v.1.15,2013-05-20 20:30:00,
2013-05-20 16:35:00,71.1,55.6,29.90,SW,228,1.0,2.0,58,0.00,,,0.48,Wunderground v.1.15,2013-05-20 20:35:00,
2013-05-20 16:45:00,71.6,56.0,29.90,SSE,149,2.0,3.0,58,0.00,,,0.48,Wunderground v.1.15,2013-05-20 20:45:00,
2013-05-20 16:50:00,71.6,54.6,29.90,SW,236,2.0,2.0,55,0.00,,,0.48,Wunderground v.1.15,2013-05-20 20:50:00,
2013-05-20 17:00:00,71.7,54.2,29.90,SSW,211,2.0,4.0,54,0.00,,,0.48,Wunderground v.1.15,2013-05-20 21:00:00,
2013-05-20 17:05:00,71.8,55.3,29.90,SE,145,2.0,5.0,56,0.00,,,0.48,Wunderground v.1.15,2013-05-20 21:05:00,
2013-05-20 17:15:00,70.8,54.8,29.90,East,95,3.0,3.0,57,0.00,,,0.48,Wunderground v.1.15,2013-05-20 21:15:00,
2013-05-20 17:20:00,70.5,55.0,29.90,SE,145,2.0,2.0,58,0.00,,,0.48,Wunderground v.1.15,2013-05-20 21:20:00,
2013-05-20 17:25:00,70.3,55.3,29.90,SSW,198,2.0,2.0,59,0.00,,,0.48,Wunderground v.1.15,2013-05-20 21:25:00,
2013-05-20 17:35:00,70.0,54.5,29.91,ESE,120,1.0,1.0,58,0.00,,,0.48,Wunderground v.1.15,2013-05-20 21:35:00,
2013-05-20 17:40:00,70.3,54.8,29.91,South,173,1.0,2.0,58,0.00,,,0.48,Wunderground v.1.15,2013-05-20 21:40:00,
2013-05-20 17:50:00,70.1,55.1,29.92,SW,219,2.0,2.0,59,0.00,,,0.48,Wunderground v.1.15,2013-05-20 21:50:00,
2013-05-20 17:55:00,69.9,54.9,29.91,NW,321,1.0,2.0,59,0.00,,,0.48,Wunderground v.1.15,2013-05-20 21:55:00,
2013-05-20 18:05:00,69.4,54.4,29.91,South,174,1.0,1.0,59,0.00,,,0.48,Wunderground v.1.15,2013-05-20 22:05:00,
2013-05-20 18:10:00,69.8,54.4,29.91,NE,42,2.0,3.0,58,0.00,,,0.48,Wunderground v.1.15,2013-05-20 22:10:00,
2013-05-20 18:20:00,69.8,54.8,29.91,SE,145,1.0,1.0,59,0.00,,,0.48,Wunderground v.1.15,2013-05-20 22:20:00,
2013-05-20 18:25:00,69.7,54.7,29.91,SSE,149,1.0,2.0,59,0.00,,,0.48,Wunderground v.1.15,2013-05-20 22:25:00,
2013-05-20 18:30:00,69.5,56.3,29.92,SSE,167,1.0,1.0,63,0.00,,,0.48,Wunderground v.1.15,2013-05-20 22:30:00,
2013-05-20 18:40:00,68.8,55.2,29.92,NE,44,1.0,2.0,62,0.00,,,0.48,Wunderground v.1.15,2013-05-20 22:40:00,
2013-05-20 18:50:00,68.7,52.8,29.93,SE,135,1.0,1.0,57,0.00,,,0.48,Wunderground v.1.15,2013-05-20 22:50:00,
2013-05-20 18:55:00,68.3,53.9,29.93,East,99,1.0,1.0,60,0.00,,,0.48,Wunderground v.1.15,2013-05-20 22:55:00,
2013-05-20 19:05:00,67.3,56.8,29.93,NNW,335,0.0,1.0,69,0.00,,,0.48,Wunderground v.1.15,2013-05-20 23:05:00,
2013-05-20 19:10:00,66.6,55.7,29.93,NNW,335,0.0,0.0,68,0.00,,,0.48,Wunderground v.1.15,2013-05-20 23:10:00,
2013-05-20 19:15:00,65.6,55.9,29.93,NNW,335,0.0,0.0,71,0.00,,,0.48,Wunderground v.1.15,2013-05-20 23:15:00,
2013-05-20 19:25:00,64.8,56.3,29.92,North,360,0.0,0.0,74,0.00,,,0.48,Wunderground v.1.15,2013-05-20 23:25:00,
2013-05-20 19:30:00,64.2,56.1,29.92,North,352,1.0,1.0,75,0.00,,,0.48,Wunderground v.1.15,2013-05-20 23:30:00,
2013-05-20 19:40:00,63.2,56.6,29.93,NNE,25,0.0,1.0,79,0.00,,,0.48,Wunderground v.1.15,2013-05-20 23:40:00,
2013-05-20 19:45:00,63.1,56.5,29.92,North,354,1.0,2.0,79,0.00,,,0.48,Wunderground v.1.15,2013-05-20 23:45:00,
2013-05-20 19:50:00,63.6,56.6,29.93,North,1,1.0,1.0,78,0.00,,,0.48,Wunderground v.1.15,2013-05-20 23:50:00,
2013-05-20 20:00:00,63.3,57.0,29.93,ENE,58,0.0,1.0,80,0.00,,,0.48,Wunderground v.1.15,2013-05-21 00:00:00,
2013-05-20 20:05:00,62.5,56.6,29.93,NE,56,1.0,1.0,81,0.00,,,0.48,Wunderground v.1.15,2013-05-21 00:05:00,
2013-05-20 20:15:00,61.2,56.7,29.93,North,4,1.0,2.0,85,0.00,,,0.48,Wunderground v.1.15,2013-05-21 00:15:00,
2013-05-20 20:20:00,60.8,56.3,29.93,North,5,0.0,1.0,85,0.00,,,0.48,Wunderground v.1.15,2013-05-21 00:20:00,
2013-05-20 20:30:00,60.4,55.9,29.94,North,354,0.0,0.0,85,0.00,,,0.48,Wunderground v.1.15,2013-05-21 00:30:00,
2013-05-20 20:35:00,60.2,56.0,29.94,North,354,0.0,1.0,86,0.00,,,0.48,Wunderground v.1.15,2013-05-21 00:35:00,
2013-05-20 20:45:00,59.8,56.2,29.94,North,349,0.0,0.0,88,0.00,,,0.48,Wunderground v.1.15,2013-05-21 00:45:00,
2013-05-20 20:50:00,59.5,55.9,29.94,North,349,0.0,0.0,88,0.00,,,0.48,Wunderground v.1.15,2013-05-21 00:50:00,
2013-05-20 21:00:00,59.2,55.6,29.94,North,355,0.0,0.0,88,0.00,,,0.48,Wunderground v.1.15,2013-05-21 01:00:00,
2013-05-20 21:05:00,58.9,55.7,29.94,North,356,0.0,0.0,89,0.00,,,0.48,Wunderground v.1.15,2013-05-21 01:05:00,
2013-05-20 21:10:00,58.7,55.5,29.94,North,356,0.0,0.0,89,0.00,,,0.48,Wunderground v.1.15,2013-05-21 01:10:00,
2013-05-20 21:20:00,58.3,55.7,29.94,North,355,0.0,1.0,91,0.00,,,0.48,Wunderground v.1.15,2013-05-21 01:20:00,
2013-05-20 21:25:00,58.2,55.6,29.94,North,355,1.0,1.0,91,0.00,,,0.48,Wunderground v.1.15,2013-05-21 01:25:00,
2013-05-20 21:35:00,58.0,55.4,29.94,NNW,337,1.0,1.0,91,0.00,,,0.48,Wunderground v.1.15,2013-05-21 01:35:00,
2013-05-20 21:40:00,57.9,55.3,29.94,NNW,337,1.0,1.0,91,0.00,,,0.48,Wunderground v.1.15,2013-05-21 01:40:00,
2013-05-20 21:45:00,57.9,55.0,29.95,NNW,338,0.0,1.0,90,0.00,,,0.48,Wunderground v.1.15,2013-05-21 01:45:00,
2013-05-20 21:55:00,57.4,55.1,29.95,ESE,104,0.0,0.0,92,0.00,,,0.48,Wunderground v.1.15,2013-05-21 01:55:00,
2013-05-20 22:00:00,57.2,55.2,29.95,ESE,104,0.0,0.0,93,0.00,,,0.48,Wunderground v.1.15,2013-05-21 02:00:00,
2013-05-20 22:10:00,56.9,54.9,29.95,North,11,0.0,0.0,93,0.00,,,0.48,Wunderground v.1.15,2013-05-21 02:10:00,
2013-05-20 22:15:00,56.8,54.8,29.95,North,10,0.0,0.0,93,0.00,,,0.48,Wunderground v.1.15,2013-05-21 02:15:00,
2013-05-20 22:20:00,56.7,55.0,29.95,North,360,0.0,0.0,94,0.00,,,0.48,Wunderground v.1.15,2013-05-21 02:20:00,